Weather History for CYYF - October, 2012

Change the Weather History Date:

Thursday, October 4, 2012

  Actual Average Record
Temperature  
Mean Temperature 46 °F -  
Max Temperature 61 °F 56 °F 71 °F (2004)
Min Temperature 30 °F 36 °F 28 °F (2013)
Degree Days  
Heating Degree Days 20    
Moisture  
Dew Point 25 °F    
Average Humidity 44    
Maximum Humidity 60    
Minimum Humidity 21    
Precipitation  
Precipitation 0.00 in 0.02 in - ()
Sea Level Pressure  
Sea Level Pressure 30.40 in    
Wind  
Wind Speed 7 mph ()    
Max Wind Speed 13 mph    
Max Gust Speed 17 mph    
Visibility 15.0 miles    
Events      
Averages and records for this station are not official NWS values.
T = Trace of Precipitation, MM = Missing Value Source: Averaged Metar Reports

Daily Weather History Graph

Daily Weather History Graph

Search for Another Location

Airport or City:

Trip Planner

Search our weather history database for the weather conditions in past years. The results will help you decide how hot, cold, wet, or windy it might be!

Date:

Astronomy

Oct. 04, 2012 Rise Set
Actual Time 7:03 AM PDT 6:29 PM PDT
Civil Twilight 6:31 AM PDT 7:01 PM PDT
Nautical Twilight 5:54 AM PDT 7:38 PM PDT
Astronomical Twilight 5:17 AM PDT 8:15 PM PDT
Moon 8:43 PM PDT (10/4) 11:50 AM PDT (10/4)
Length of Visible Light 12h 29m
Length of Day
11h 25m
Waning Gibbous, 81% of the Moon is Illuminated
Oct 4
Waning Gibbous
Oct 8
Last Quarter
Oct 15
New
Oct 21
First Quarter
Oct 29
Full

Hourly Weather History & Observations

Time (PDT) Temp. Windchill Dew Point Humidity Pressure Visibility Wind Dir Wind Speed Gust Speed Precip Events Conditions
12:00 AM 39.2 °F 33.0 °F 19.4 °F 45% 30.41 in 15.0 mi North 9.2 mph - N/A   Partly Cloudy
1:00 AM 37.4 °F 31.4 °F 19.4 °F 48% 30.41 in 15.0 mi North 8.1 mph - N/A   Clear
2:00 AM 35.6 °F 28.6 °F 21.2 °F 56% 30.42 in 15.0 mi North 9.2 mph - N/A   Clear
3:00 AM 35.6 °F 29.2 °F 19.4 °F 52% 30.42 in 15.0 mi North 8.1 mph - N/A   Clear
4:00 AM 35.6 °F 29.2 °F 19.4 °F 52% 30.42 in 15.0 mi North 8.1 mph - N/A   Clear
5:00 AM 35 °F - 21 °F 45% 30.43 in 15 mi North 9.2 mph - -  
5:00 AM 35.6 °F 28.6 °F 21.2 °F 56% 30.43 in 15.0 mi North 9.2 mph - N/A   Clear
5:51 AM 33.8 °F 27.7 °F 19.4 °F 56% 30.44 in 15.0 mi North 6.9 mph - N/A   Clear
6:00 AM 33.8 °F 27.7 °F 21.2 °F 60% 30.44 in 15.0 mi North 6.9 mph - N/A   Clear
7:00 AM 33.8 °F 26.4 °F 21.2 °F 60% 30.45 in 15.0 mi North 9.2 mph - N/A   Partly Cloudy
8:00 AM 35.6 °F 29.9 °F 23.0 °F 60% 30.46 in 15.0 mi North 6.9 mph - N/A   Clear
9:00 AM 44.6 °F 42.2 °F 28.4 °F 53% 30.46 in 15.0 mi North 4.6 mph - N/A   Clear
10:00 AM 48.2 °F - 32.0 °F 54% 30.45 in 15.0 mi North 8.1 mph - N/A   Clear
11:00 AM 50 °F - 33 °F 40% 30.45 in 15 mi North 6.9 mph - -  
11:00 AM 50.0 °F - 33.8 °F 54% 30.45 in 15.0 mi NNW 8.1 mph - N/A   Clear
12:00 PM 51.8 °F - 32.0 °F 47% 30.43 in 15.0 mi North 8.1 mph - N/A   Clear
1:00 PM 55.4 °F - 32.0 °F 41% 30.41 in 15.0 mi North 6.9 mph - N/A   Partly Cloudy
2:00 PM 59.0 °F - 30.2 °F 34% 30.38 in 15.0 mi NW 6.9 mph - N/A   Clear
3:00 PM 59.0 °F - 32.0 °F 36% 30.36 in 15.0 mi NNE 6.9 mph - N/A   Clear
4:00 PM 60.8 °F - 33.8 °F 36% 30.33 in 15.0 mi NNE 11.5 mph - N/A   Clear
5:00 PM 60 °F - 30 °F 21% 30.33 in 15 mi North 12.7 mph - -  
5:00 PM 60.8 °F - 30.2 °F 31% 30.33 in 15.0 mi North 11.5 mph 17.3 mph N/A   Clear
6:00 PM 57.2 °F - 32.0 °F 38% 30.33 in 15.0 mi North 5.8 mph - N/A   Clear
7:00 PM 50.0 °F - 24.8 °F 37% 30.35 in 15.0 mi NNE 6.9 mph - N/A   Clear
8:00 PM 50.0 °F - 21.2 °F 32% 30.36 in 15.0 mi North 8.1 mph - N/A   Clear
9:00 PM 50.0 °F - 19.4 °F 30% 30.35 in 15.0 mi North 10.4 mph - N/A   Clear
10:00 PM 46.4 °F 41.9 °F 19.4 °F 34% 30.37 in 15.0 mi North 9.2 mph - N/A   Clear
11:00 PM 42 °F - 19 °F 26% 30.38 in 15 mi North 9.2 mph - -  
11:00 PM 42.8 °F 37.5 °F 19.4 °F 39% 30.38 in 15.0 mi North 9.2 mph - N/A   Clear